Content
SEND FEEDBACK

Daily
Averages
Monthly
Summary
United States of America

WANATAH, INDIANA


Home > North America > United States > Indiana
Elevation: 726 feet     Latitude: 41 25N     Longitude: 086 55W

WEATHER
 
SELECT A DAY
Number of Records: 188,025;   Date Range: 11/13/97 - 10/18/14
 
SHARE

PRINT THIS DATA

[ ← Previous Day ]
WEATHER ALMANAC - JANUARY 31, 2013
[ Next Day → ]
[ °C ]   °F
Weather ElementAverageHighLow
Temperature16.1 °F21.9 °F (1:53 am)7 °F (11:53 pm)
Dewpoint8.6 °F16 °F (1:53 am)-0.4 °F (11:21 pm)
Humidity72.2 %86 % (3:28 am)64 % (7:53 pm)
Barometer29.87 in30.16 in (11:53 pm)29.64 in (1:24 am)
Wind Speed19.3 mph25.3 mph (1:53 pm)
Wind Gust32.2 mph (1:24 am)
Weather ElementAverage
Visibility6.3 mi
Wind DirectionW (270.9 °)

Weather ElementTotal
Precipitation---
Heating Degree Days50.6 (Base 65)
Averaged from 45 records on January 31, 2013
WEATHER CONDITIONS BREAKOUT
WIND DIRECTION BREAKOUT
WEATHER BY HOUR - JANUARY 31, 2013
[ °C ]   °F
Local TimeTemperatureDewpointHumidityBarometerVisibilityWind DirectionWind SpeedGust SpeedPrecipitationEventsConditions
1:24 AM21.2 °F15.8 °F80 %29.64 in9.0 miWest (280°)19.6 mph32.2 mph0.00 inOvercast
1:48 AM21.2 °F15.8 °F80 %29.65 in7.0 miWest (280°)17.3 mph0.00 inSnowLight Snow
1:53 AM21.9 °F16.0 °F78 %29.68 in5.0 miWest (270°)13.8 mph23.0 mph0.00 inSnowLight Snow
2:53 AM19.9 °F14.0 °F78 %29.70 in5.0 miWSW (250°)20.7 mph28.8 mph0.00 inSnowLight Snow
3:28 AM19.4 °F15.8 °F86 %29.68 in1.8 miWest (260°)17.3 mph24.2 mph0.00 inSnowLight Snow
3:38 AM19.4 °F14.0 °F80 %29.69 in3.0 miWest (260°)19.6 mph0.00 inSnowLight Snow
3:53 AM19.0 °F12.9 °F77 %29.72 in3.0 miWest (270°)18.4 mph29.9 mph0.00 inSnowLight Snow
4:11 AM19.4 °F12.2 °F74 %29.70 in9.0 miWest (270°)21.9 mph28.8 mph0.00 inSnowLight Snow
4:48 AM19.4 °F10.4 °F68 %29.71 in7.0 miWest (280°)15.0 mph26.5 mph0.00 inSnowLight Snow
4:53 AM19.0 °F10.0 °F68 %29.75 in8.0 miWest (270°)21.9 mph27.6 mph0.00 inSnowLight Snow
5:39 AM17.6 °F12.2 °F79 %29.72 in5.0 miWest (260°)21.9 mph26.5 mph0.00 inSnowLight Snow
5:53 AM18.0 °F10.9 °F74 %29.75 in5.0 miWest (270°)21.9 mph26.5 mph0.00 inSnowLight Snow
6:53 AM18.0 °F10.0 °F71 %29.78 in10.0 miWest (260°)17.3 mph0.00 inOvercast
7:53 AM19.0 °F10.9 °F71 %29.81 in10.0 miWest (260°)17.3 mph24.2 mph0.00 inOvercast
8:24 AM19.4 °F12.2 °F74 %29.79 in2.0 miWest (260°)21.9 mph27.6 mph0.00 inSnowLight Snow
8:40 AM17.6 °F10.4 °F73 %29.80 in6.0 miWest (270°)20.7 mph27.6 mph0.00 inSnowLight Snow
8:53 AM19.0 °F12.0 °F74 %29.83 in3.0 miWest (270°)20.7 mph25.3 mph0.00 inSnowLight Snow
9:53 AM19.9 °F12.0 °F71 %29.85 in10.0 miWest (280°)17.3 mph0.00 inOvercast
10:53 AM19.0 °F10.9 °F71 %29.88 in9.0 miWSW (250°)24.2 mph28.8 mph0.00 inSnowLight Snow
11:53 AM19.0 °F10.0 °F68 %29.89 in9.0 miWest (260°)20.7 mph28.8 mph0.00 inSnowLight Snow
12:53 PM18.0 °F8.1 °F65 %29.90 in10.0 miWest (270°)20.7 mph29.9 mph0.00 inOvercast
1:16 PM17.6 °F8.6 °F68 %29.87 in6.0 miWest (260°)20.7 mph0.00 inSnowLight Snow
1:53 PM17.1 °F8.1 °F68 %29.91 in4.0 miWest (260°)25.3 mph31.1 mph0.00 inSnowLight Snow
2:33 PM17.6 °F10.4 °F73 %29.87 in2.5 miWNW (290°)17.3 mph25.3 mph0.00 inSnowLight Snow
2:41 PM15.8 °F10.4 °F79 %29.88 in1.8 miWest (280°)18.4 mph25.3 mph0.00 inSnowLight Snow
2:44 PM15.8 °F8.6 °F73 %29.88 in3.0 miWest (280°)18.4 mph25.3 mph0.00 inSnowLight Snow
2:53 PM16.0 °F9.0 °F74 %29.92 in2.5 miWest (270°)17.3 mph25.3 mph0.00 inSnowLight Snow
3:03 PM15.8 °F8.6 °F73 %29.89 in1.2 miWest (260°)16.1 mph0.00 inSnowLight Snow
3:12 PM15.8 °F8.6 °F73 %29.88 in2.5 miWest (260°)19.6 mph27.6 mph0.00 inSnowLight Snow
3:19 PM15.8 °F8.6 °F73 %29.88 in5.0 miWest (260°)19.6 mph27.6 mph0.00 inSnowLight Snow
3:53 PM16.0 °F8.1 °F71 %29.94 in7.0 miWest (280°)18.4 mph0.00 inSnowLight Snow
4:24 PM15.8 °F8.6 °F73 %29.91 in2.0 miWest (280°)16.1 mph0.00 inSnowLight Snow
4:40 PM15.8 °F6.8 °F68 %29.92 in9.0 miWNW (290°)16.1 mph0.00 inOvercast
4:53 PM15.1 °F6.1 °F68 %29.96 in10.0 miWest (270°)20.7 mph25.3 mph0.00 inOvercast
5:23 PM14.0 °F5.0 °F67 %29.94 in10.0 miWest (270°)20.7 mph28.8 mphOvercast
6:22 PM12.2 °F3.2 °F67 %29.97 in10.0 miWest (280°)21.9 mph27.6 mphOvercast
6:53 PM12.9 °F3.0 °F65 %30.03 in10.0 miWest (270°)21.9 mph28.8 mphOvercast
7:45 PM10.4 °F1.4 °F67 %30.01 in10.0 miWest (280°)21.9 mph28.8 mphMostly Cloudy
7:53 PM10.9 °F1.0 °F64 %30.06 in10.0 miWest (280°)16.1 mph28.8 mphMostly Cloudy
8:53 PM10.0 °F1.9 °F70 %30.08 in5.0 miWest (280°)21.9 mph27.6 mph0.00 inSnowLight Snow
9:28 PM8.6 °F1.4 °F73 %30.05 in4.0 miWest (280°)18.4 mph26.5 mph0.00 inSnowLight Snow
9:53 PM9.0 °F1.0 °F70 %30.10 in5.0 miWNW (290°)23.0 mph27.6 mph0.00 inSnowLight Snow
10:53 PM8.1 °F1.0 °F73 %30.13 in8.0 miWest (270°)18.4 mph26.5 mph0.00 inOvercast
11:21 PM8.6 °F-0.4 °F67 %30.10 in10.0 miWest (270°)18.4 mphOvercast
11:53 PM7.0 °F0.0 °F73 %30.16 in10.0 miWest (280°)11.5 mphMostly Cloudy
Hourly data recorded from KVPZ, located miles away from Wanatah, Indiana







STORIES FROM OUR PARTNERS